When you browse on this site, cookies collect data to enhance your experience and personalize the content and advertising you see.
Visit our Privacy Policy to learn more. By continuing to use the site, you agree to this use of cookies and data.
  • In Hungary
  • List of Countries
  • For 7 days
  • Water Temperature
  • Satellite Maps
  • Weather Map
  • News
  • Weather Widgets
  • user-avatar
    Login

    Hourly Weather Kacice

    Today, 20 May, Monday

    Time Temperature Precipitation Wind Pressure Humidity
    00:00 +14°C° 0 mm 2 mps 729 mmHg 92%
    01:00 +14°C° 0 mm 2 mps 729 mmHg 92%
    02:00 +14°C° 0 mm 2 mps 728 mmHg 93%
    03:00 +14°C° 0 mm 2 mps 728 mmHg 93%
    04:00 +13°C° 0 mm 2 mps 727 mmHg 94%
    05:00 +14°C° 0 mm 3 mps 728 mmHg 90%
    06:00 +15°C° 0 mm 4 mps 728 mmHg 86%
    07:00 +19°C° 0 mm 5 mps 728 mmHg 79%
    08:00 +20°C° 0 mm 5 mps 728 mmHg 73%
    09:00 +21°C° 0 mm 5 mps 728 mmHg 67%
    10:00 +22°C° 0 mm 5 mps 729 mmHg 60%
    11:00 +23°C° 0 mm 5 mps 729 mmHg 58%
    12:00 +23°C° 0 mm 5 mps 729 mmHg 55%
    13:00 +25°C° 0 mm 5 mps 729 mmHg 52%
    14:00 +23°C° 0 mm 4 mps 729 mmHg 54%
    15:00 +23°C° 0 mm 4 mps 729 mmHg 55%
    16:00 +24°C° 0 mm 3 mps 729 mmHg 57%
    17:00 +21°C° 0.1 mm 3 mps 729 mmHg 63%
    18:00 +20°C° 0.1 mm 2 mps 728 mmHg 69%
    19:00 +18°C° 0.1 mm 2 mps 728 mmHg 75%
    20:00 +17°C° 0 mm 2 mps 728 mmHg 76%
    21:00 +16°C° 0 mm 2 mps 728 mmHg 76%
    22:00 +15°C° 0 mm 2 mps 729 mmHg 77%
    23:00 +15°C° 0 mm 2 mps 729 mmHg 78%

    Tomorrow, 21 May, Tuesday

    Time Temperature Precipitation Wind Pressure Humidity
    00:00 +14°C° 0 mm 2 mps 729 mmHg 78%
    01:00 +14°C° 0 mm 2 mps 729 mmHg 78%
    02:00 +14°C° 0 mm 2 mps 728 mmHg 78%
    03:00 +14°C° 0 mm 1 mps 728 mmHg 79%
    04:00 +14°C° 0 mm 1 mps 728 mmHg 79%
    05:00 +15°C° 0 mm 1 mps 728 mmHg 77%
    06:00 +16°C° 0 mm 1 mps 728 mmHg 76%
    07:00 +18°C° 0 mm 1 mps 728 mmHg 74%
    08:00 +19°C° 0.2 mm 1 mps 728 mmHg 70%
    09:00 +20°C° 0.2 mm 1 mps 728 mmHg 66%
    10:00 +21°C° 0.2 mm 1 mps 728 mmHg 62%
    11:00 +21°C° 0.5 mm 1 mps 728 mmHg 63%
    12:00 +21°C° 0.5 mm 1 mps 728 mmHg 63%
    13:00 +20°C° 0.5 mm 2 mps 728 mmHg 64%
    14:00 +20°C° 0.5 mm 2 mps 728 mmHg 68%
    15:00 +19°C° 0.5 mm 3 mps 728 mmHg 72%
    16:00 +19°C° 0.5 mm 3 mps 728 mmHg 76%
    17:00 +18°C° 0.8 mm 3 mps 728 mmHg 79%
    18:00 +17°C° 0.8 mm 4 mps 728 mmHg 82%
    19:00 +15°C° 0.8 mm 4 mps 728 mmHg 85%
    20:00 +14°C° 0.9 mm 4 mps 728 mmHg 86%
    21:00 +14°C° 0.9 mm 4 mps 728 mmHg 87%
    22:00 +13°C° 0.9 mm 4 mps 728 mmHg 89%
    23:00 +13°C° 1.3 mm 4 mps 728 mmHg 90%

    Day after tomorrow, 22 May, Wednesday

    Time Temperature Precipitation Wind Pressure Humidity
    00:00 +13°C° 1.3 mm 4 mps 728 mmHg 90%
    01:00 +13°C° 1.3 mm 4 mps 728 mmHg 91%
    02:00 +13°C° 2.4 mm 5 mps 728 mmHg 92%
    03:00 +13°C° 2.4 mm 5 mps 728 mmHg 93%
    04:00 +12°C° 2.4 mm 5 mps 728 mmHg 93%
    05:00 +11°C° 2.9 mm 6 mps 729 mmHg 93%
    06:00 +11°C° 2.9 mm 6 mps 729 mmHg 93%
    07:00 +11°C° 2.9 mm 6 mps 729 mmHg 94%
    08:00 +13°C° 0.8 mm 6 mps 729 mmHg 93%
    09:00 +13°C° 0.8 mm 6 mps 730 mmHg 92%
    10:00 +13°C° 0.8 mm 6 mps 730 mmHg 92%
    11:00 +14°C° 0.4 mm 6 mps 730 mmHg 90%
    12:00 +14°C° 0.4 mm 6 mps 731 mmHg 89%
    13:00 +15°C° 0.4 mm 6 mps 731 mmHg 88%
    14:00 +15°C° 0.4 mm 7 mps 731 mmHg 89%
    15:00 +15°C° 0.4 mm 7 mps 731 mmHg 90%
    16:00 +15°C° 0.4 mm 7 mps 731 mmHg 90%
    17:00 +14°C° 0.6 mm 7 mps 731 mmHg 91%
    18:00 +12°C° 0.6 mm 7 mps 731 mmHg 92%
    19:00 +12°C° 0.6 mm 7 mps 732 mmHg 92%
    20:00 +11°C° 1.2 mm 7 mps 732 mmHg 93%
    21:00 +11°C° 1.2 mm 6 mps 732 mmHg 93%
    22:00 +11°C° 1.2 mm 6 mps 733 mmHg 94%
    23:00 +11°C° 0.4 mm 6 mps 733 mmHg 94%

    23 May, Thursday

    Time Temperature Precipitation Wind Pressure Humidity
    00:00 +11°C° 0.4 mm 6 mps 733 mmHg 94%
    01:00 +11°C° 0.4 mm 6 mps 733 mmHg 94%
    02:00 +11°C° 0.5 mm 6 mps 733 mmHg 94%
    03:00 +11°C° 0.5 mm 6 mps 733 mmHg 93%
    04:00 +10°C° 0.5 mm 7 mps 733 mmHg 93%
    05:00 +10°C° 0.7 mm 7 mps 734 mmHg 93%
    06:00 +10°C° 0.7 mm 7 mps 734 mmHg 93%
    07:00 +10°C° 0.7 mm 7 mps 735 mmHg 92%
    08:00 +9°C° 1.3 mm 7 mps 735 mmHg 92%
    09:00 +9°C° 1.3 mm 7 mps 735 mmHg 92%
    10:00 +9°C° 1.3 mm 7 mps 736 mmHg 92%
    11:00 +9°C° 0.4 mm 7 mps 736 mmHg 91%
    12:00 +8°C° 0.4 mm 7 mps 736 mmHg 90%
    13:00 +8°C° 0.4 mm 7 mps 737 mmHg 88%
    14:00 +9°C° 0 mm 6 mps 737 mmHg 86%
    15:00 +9°C° 0 mm 6 mps 737 mmHg 83%
    16:00 +10°C° 0 mm 5 mps 737 mmHg 80%
    17:00 +11°C° 0 mm 4 mps 737 mmHg 81%
    18:00 +11°C° 0 mm 3 mps 737 mmHg 83%
    19:00 +12°C° 0 mm 1 mps 737 mmHg 84%
    20:00 +11°C° 0 mm 1 mps 737 mmHg 86%
    21:00 +10°C° 0 mm 1 mps 737 mmHg 87%
    22:00 +9°C° 0 mm 1 mps 737 mmHg 89%
    23:00 +8°C° 0 mm 2 mps 737 mmHg 90%

    24 May, Friday

    Time Temperature Precipitation Wind Pressure Humidity
    00:00 +7°C° 0 mm 2 mps 737 mmHg 91%
    01:00 +7°C° 0 mm 2 mps 737 mmHg 92%
    02:00 +6°C° 0 mm 2 mps 737 mmHg 91%
    03:00 +6°C° 0 mm 2 mps 736 mmHg 91%
    04:00 +6°C° 0 mm 2 mps 736 mmHg 90%
    05:00 +7°C° 0 mm 3 mps 736 mmHg 85%
    06:00 +9°C° 0 mm 3 mps 736 mmHg 79%
    07:00 +11°C° 0 mm 3 mps 736 mmHg 73%
    08:00 +12°C° 0 mm 3 mps 736 mmHg 68%
    09:00 +13°C° 0 mm 3 mps 735 mmHg 62%
    10:00 +16°C° 0 mm 3 mps 735 mmHg 57%
    11:00 +16°C° 0 mm 3 mps 735 mmHg 54%
    12:00 +17°C° 0 mm 3 mps 734 mmHg 51%
    13:00 +18°C° 0 mm 3 mps 734 mmHg 49%
    14:00 +18°C° 0 mm 2 mps 733 mmHg 49%
    15:00 +18°C° 0 mm 2 mps 733 mmHg 50%
    16:00 +18°C° 0 mm 2 mps 733 mmHg 50%
    17:00 +18°C° 0 mm 1 mps 732 mmHg 56%
    18:00 +15°C° 0 mm 1 mps 732 mmHg 62%
    19:00 +13°C° 0 mm 1 mps 732 mmHg 68%
    20:00 +12°C° 0 mm 1 mps 732 mmHg 69%
    21:00 +11°C° 0 mm 1 mps 732 mmHg 71%
    22:00 +10°C° 0 mm 1 mps 732 mmHg 72%
    23:00 +10°C° 0 mm 1 mps 732 mmHg 74%

    25 May, Saturday

    Time Temperature Precipitation Wind Pressure Humidity
    00:00 +9°C° 0 mm 1 mps 731 mmHg 76%
    01:00 +8°C° 0 mm 0 mps 731 mmHg 78%
    02:00 +9°C° 0 mm 1 mps 731 mmHg 79%
    03:00 +8°C° 0 mm 1 mps 731 mmHg 80%
    04:00 +8°C° 0 mm 1 mps 731 mmHg 81%
    05:00 +10°C° 0 mm 1 mps 731 mmHg 77%
    06:00 +12°C° 0 mm 1 mps 731 mmHg 73%
    07:00 +14°C° 0 mm 1 mps 731 mmHg 69%
    08:00 +16°C° 0 mm 1 mps 731 mmHg 65%
    09:00 +19°C° 0 mm 1 mps 731 mmHg 60%
    10:00 +20°C° 0 mm 1 mps 731 mmHg 56%
    11:00 +21°C° 0 mm 1 mps 731 mmHg 55%
    12:00 +22°C° 0 mm 1 mps 731 mmHg 54%
    13:00 +23°C° 0 mm 1 mps 731 mmHg 53%
    14:00 +23°C° 0.6 mm 1 mps 731 mmHg 57%
    15:00 +22°C° 0.6 mm 1 mps 731 mmHg 61%
    16:00 +22°C° 0.6 mm 1 mps 731 mmHg 64%
    17:00 +19°C° 1.3 mm 2 mps 731 mmHg 71%
    18:00 +18°C° 1.3 mm 2 mps 731 mmHg 78%
    19:00 +17°C° 1.3 mm 2 mps 731 mmHg 84%
    20:00 +16°C° 0.6 mm 2 mps 731 mmHg 88%
    21:00 +15°C° 0.6 mm 2 mps 731 mmHg 91%
    22:00 +14°C° 0.6 mm 2 mps 732 mmHg 94%
    23:00 +13°C° 0 mm 2 mps 732 mmHg 94%
    Show more